Location: *
(51.0333°S, 178.4667°E)
Time: 09:51:19
(UTC+00:00)

STARLINK-35 - Pass Details

Date: 15 November 2019
Orbit: 529 x 530 km, 53.0° (Epoch: 16 December)

Event Time Altitude Azimuth Distance (km) Brightness Sun altitude
Rises 10:22:59 0° 257° (WSW) 2,685 7.6 -17.9°
Reaches altitude 10° 10:25:12 10° 254° (WSW) 1,795 6.7 -18.0°
Maximum altitude 10:29:17 75° 168° (SSE) 562 3.7 -18.2°
Enters shadow 10:32:05 20° 85° (E) 1,296 5.3 -18.4°
